Date String (YYYY-MM-DD hh:mm:ss) UTC,Instrument flags,Ambient pressure (hPa),Sample flow (lpm),Bypass flow (lpm),Sample temperature (°C),Ambient temperature (°C),ASC tube jacket temperature (°C),LED temperature (°C),Box temperature (°C),Sample RH (%),Span deviation,Mass concentration (μg/m³),Mass concentration (μg/m³),Mass concentration (μg/m³)
DateTimeUTC,F1_M11,P_M11,Q1_M11,Q2_M11,T1_M11,T2_M11,T3_M11,T4_M11,T5_M11,U1_M11,ZSPAN_M11,X0_M11,X2_M11,X1_M11
2023-01-08 21:00:00,,0824.1,5.00,0.00,23.8,22.7,00.0,32.5,25.6,09.0,0000.6,0008.49,0004.88,0004.67
2023-01-08 21:01:00,,0824.1,5.00,0.00,23.8,22.7,00.0,32.5,25.6,08.3,0000.5,0008.93,0005.23,0005.01
2023-01-08 21:02:00,,0824.2,5.00,0.00,23.8,22.8,00.0,32.5,25.6,09.0,0000.5,0009.33,0005.69,0005.42
2023-01-08 21:03:00,,0824.2,5.01,0.00,23.8,22.8,00.0,32.5,25.6,09.3,0000.6,0009.94,0006.16,0005.87
2023-01-08 21:04:00,,0824.1,5.00,0.00,23.9,22.9,00.0,32.5,25.6,09.8,0000.4,0010.48,0006.55,0006.22
2023-01-08 21:05:00,,0824.1,4.99,0.00,23.9,22.9,00.0,32.6,25.6,08.6,0000.3,0010.96,0006.76,0006.41
2023-01-08 21:06:00,,0824.1,5.00,0.00,23.9,23.0,00.0,32.6,25.7,07.9,0000.8,0011.34,0006.73,0006.36
2023-01-08 21:07:00,,0824.1,5.00,0.00,24.0,23.0,00.0,32.6,25.7,07.8,0001.0,0011.10,0006.53,0006.16
2023-01-08 21:08:00,,0824.1,5.00,0.00,24.0,23.1,00.0,32.6,25.8,07.6,0001.0,0011.00,0006.47,0006.09
2023-01-08 21:09:00,,0824.1,5.00,0.00,24.0,23.1,00.0,32.7,25.9,07.4,0000.7,0010.65,0006.24,0005.90
2023-01-08 21:10:00,,0824.1,5.01,0.00,24.1,23.2,00.0,32.7,25.9,08.0,0000.7,0010.20,0006.05,0005.70
2023-01-08 21:11:00,,0824.1,4.99,0.00,24.1,23.2,00.0,32.7,26.0,08.9,0001.0,0010.66,0005.92,0005.55
2023-01-08 21:12:00,,0824.2,5.02,0.00,24.1,23.2,00.0,32.7,26.0,08.2,0001.1,0010.60,0005.86,0005.49
2023-01-08 21:13:00,,0824.2,5.00,0.00,24.2,23.3,00.0,32.8,26.0,08.4,0001.1,0010.37,0005.69,0005.34
2023-01-08 21:14:00,,0824.1,5.00,0.00,24.2,23.3,00.0,32.8,26.1,07.6,0001.0,0010.13,0005.45,0005.11
2023-01-08 21:15:00,,0824.2,5.00,0.00,24.2,23.3,00.0,32.8,26.1,06.7,0001.7,0009.69,0005.12,0004.80
2023-01-08 21:16:00,,0824.2,5.00,0.00,24.2,23.4,00.0,32.8,26.1,07.2,0001.8,0009.33,0004.92,0004.61
2023-01-08 21:17:00,,0824.2,5.00,0.00,24.3,23.4,00.0,32.9,26.1,06.7,0001.3,0008.65,0004.76,0004.47
2023-01-08 21:18:00,,0824.1,5.00,0.00,24.3,23.4,00.0,32.9,26.2,07.2,0000.8,0008.46,0004.62,0004.35
2023-01-08 21:19:00,,0824.1,5.00,0.00,24.3,23.5,00.0,32.9,26.2,07.0,0000.7,0008.29,0004.49,0004.22
2023-01-08 21:20:00,,0824.1,5.00,0.00,24.4,23.5,00.0,32.9,26.3,07.3,0000.5,0008.19,0004.36,0004.11
2023-01-08 21:21:00,,0824.1,5.00,0.00,24.4,23.5,00.0,33.0,26.3,07.1,0000.4,0007.97,0004.21,0003.97
2023-01-08 21:22:00,,0824.1,5.00,0.00,24.4,23.6,00.0,33.0,26.3,07.9,-000.8,0007.02,0004.02,0003.80
2023-01-08 21:23:00,,0824.1,4.99,0.00,24.4,23.6,00.0,33.0,26.3,07.1,-001.2,0006.48,0003.83,0003.63
2023-01-08 21:24:00,,0824.1,4.99,0.00,24.5,23.6,00.0,33.1,26.4,05.5,-001.4,0006.09,0003.53,0003.35
2023-01-08 21:25:00,,0824.2,5.01,0.00,24.5,23.6,00.0,33.1,26.4,08.8,-001.4,0006.68,0003.49,0003.28
2023-01-08 21:26:00,,0824.2,5.01,0.00,24.5,23.6,00.0,33.1,26.5,10.9,-001.1,0007.81,0004.07,0003.83
2023-01-08 21:27:00,,0824.1,5.00,0.00,24.5,23.6,00.0,33.2,26.5,10.1,-001.0,0008.50,0004.57,0004.35
2023-01-08 21:28:00,,0824.1,5.00,0.00,24.5,23.6,00.0,33.2,26.5,08.4,-001.0,0008.86,0004.83,0004.59
2023-01-08 21:29:00,,0824.1,5.00,0.00,24.6,23.6,00.0,33.2,26.4,06.0,-001.0,0008.90,0004.83,0004.59
2023-01-08 21:30:00,,0824.1,4.99,0.00,24.6,23.6,00.0,33.2,26.4,05.1,-001.1,0008.70,0004.66,0004.43
2023-01-08 21:31:00,,0824.2,5.00,0.00,24.6,23.6,00.0,33.2,26.4,07.7,-001.0,0008.50,0004.66,0004.42
2023-01-08 21:32:00,,0824.2,5.01,0.00,24.6,23.7,00.0,33.3,26.5,09.9,-000.9,0008.95,0005.03,0004.78
2023-01-08 21:33:00,,0824.2,5.00,0.00,24.7,23.7,00.0,33.3,26.5,10.0,-000.8,0009.57,0005.49,0005.24
2023-01-08 21:34:00,,0824.1,5.00,0.00,24.7,23.7,00.0,33.3,26.5,10.3,-001.0,0010.22,0005.99,0005.71
2023-01-08 21:35:00,,0824.1,4.99,0.00,24.7,23.8,00.0,33.3,26.6,07.9,-001.1,0010.58,0006.34,0006.07
2023-01-08 21:36:00,,0824.1,4.99,0.00,24.7,23.8,00.0,33.3,26.6,06.3,-001.1,0010.01,0006.32,0006.09
2023-01-08 21:37:00,,0824.2,4.99,0.00,24.7,23.8,00.0,33.4,26.6,06.9,-001.3,0009.32,0005.82,0005.59
2023-01-08 21:38:00,,0824.2,5.01,0.00,24.8,23.8,00.0,33.4,26.6,10.5,-001.6,0009.38,0005.80,0005.54
2023-01-08 21:39:00,,0824.2,4.98,0.00,24.8,23.9,00.0,33.4,26.7,10.7,-001.9,0010.01,0006.25,0005.95
2023-01-08 21:40:00,,0824.2,5.01,0.00,24.8,23.9,00.0,33.4,26.7,10.3,-001.8,0010.81,0006.90,0006.57
2023-01-08 21:41:00,,0824.3,5.00,0.00,24.8,23.9,00.0,33.5,26.7,09.5,-001.7,0011.63,0007.51,0007.14
2023-01-08 21:42:00,,0824.2,5.00,0.00,24.9,23.9,00.0,33.5,26.7,08.8,-001.6,0012.03,0007.83,0007.46
2023-01-08 21:43:00,,0824.2,4.99,0.00,24.9,23.9,00.0,33.5,26.7,09.9,-001.6,0012.17,0007.79,0007.41
2023-01-08 21:44:00,,0824.3,5.00,0.00,24.9,23.9,00.0,33.5,26.8,10.6,-001.7,0012.77,0007.78,0007.39
2023-01-08 21:45:00,,0824.3,5.00,0.00,24.9,23.7,00.0,33.6,26.7,09.9,-001.6,0012.85,0007.68,0007.31
2023-01-08 21:46:00,,0824.4,5.01,0.00,24.8,23.5,00.0,33.6,26.6,11.0,-001.4,0013.00,0007.80,0007.39
2023-01-08 21:47:00,,0824.4,5.00,0.00,24.8,23.4,00.0,33.6,26.6,11.5,-001.2,0013.87,0008.43,0007.97
2023-01-08 21:48:00,,0824.4,4.99,0.00,24.8,23.3,00.0,33.6,26.6,11.4,-001.3,0014.84,0009.12,0008.63
2023-01-08 21:49:00,,0824.4,4.99,0.00,24.8,23.4,00.0,33.6,26.6,11.1,-001.6,0015.14,0009.27,0008.79
2023-01-08 21:50:00,,0824.4,4.99,0.00,24.8,23.4,00.0,33.6,26.6,10.2,-001.5,0014.79,0009.03,0008.58
2023-01-08 21:51:00,,0824.3,5.00,0.00,24.7,23.3,00.0,33.6,26.6,08.6,-001.6,0014.31,0008.65,0008.24
2023-01-08 21:52:00,,0824.3,5.01,0.00,24.7,23.3,00.0,33.6,26.5,06.7,-001.5,0013.77,0008.23,0007.84
2023-01-08 21:53:00,,0824.2,5.00,0.00,24.7,23.3,00.0,33.6,26.5,06.0,-001.6,0013.37,0007.89,0007.52
2023-01-08 21:54:00,,0824.2,5.00,0.00,24.7,23.2,00.0,33.6,26.5,05.9,-001.6,0012.78,0007.53,0007.18
2023-01-08 21:55:00,,0824.2,5.00,0.00,24.7,23.3,00.0,33.6,26.5,06.2,-001.6,0011.62,0007.03,0006.71
2023-01-08 21:56:00,,0824.2,4.99,0.00,24.7,23.3,00.0,33.5,26.5,06.1,-001.6,0010.81,0006.59,0006.26
2023-01-08 21:57:00,,0824.2,4.99,0.00,24.7,23.4,00.0,33.5,26.6,06.4,-001.6,0010.24,0006.14,0005.83
2023-01-08 21:58:00,,0824.3,4.99,0.00,24.7,23.4,00.0,33.5,26.6,06.3,-002.0,0009.34,0005.48,0005.20
2023-01-08 21:59:00,,0824.3,5.00,0.00,24.7,23.4,00.0,33.5,26.6,06.6,-002.1,0008.29,0004.76,0004.52
